Temperature
21 19 18 18 19 19 19 19 19 20 21 20 20 20 20 21 21 21 21 21 21 21 22 21 21 21 20 20 19 19 18 17 17 16 16 16 15 15 14 14 14 14 14 14
19 19 20 20 20 20 20 19 19 20 21 21 20 20 20 20 21 21 21 21 21 21 21 21 21 20 20 20 19 19 18 17 17 16 16 15 15 14 14 14 14 14 14 14
19 20 21 21 20 20 20 20 20 20 20 21 20 20 20 21 21 22 22 22 21 21 21 21 20 20 20 19 19 18 18 17 17 16 16 15 15 15 14 14 14 14 14 13
20 20 21 21 21 21 20 21 21 21 19 18 20 19 20 20 20 20 21 21 21 21 21 21 21 20 20 19 19 18 18 17 16 16 16 15 15 15 14 14 14 14 14 13
20 21 21 21 21 21 21 21 21 21 19 19 19 19 19 20 20 20 20 21 22 22 22 21 21 20 20 19 19 18 17 17 16 16 16 15 15 15 14 14 14 14 14 13
20 21 21 21 22 22 22 20 20 18 17 18 19 19 19 19 20 20 20 21 22 22 22 21 21 20 20 19 18 18 17 17 16 16 16 15 15 15 14 14 14 14 14 14
20 20 22 22 22 21 20 18 17 18 17 18 19 19 19 20 21 21 20 21 22 22 22 21 20 20 19 19 18 18 17 17 16 16 16 15 15 15 14 14 14 14 14 14
19 19 21 22 22 21 20 18 17 18 18 17 18 19 20 21 22 22 22 22 22 22 22 21 21 20 20 19 18 18 17 17 16 16 16 15 15 15 15 14 14 14 14 14
19 19 21 22 22 21 20 18 18 17 18 17 18 20 21 21 21 21 21 21 21 22 22 21 21 20 20 19 19 18 17 17 16 16 16 15 15 15 15 14 14 14 14 14
19 19 21 22 22 22 20 19 17 17 18 18 19 19 19 21 21 21 20 20 21 22 22 21 21 20 20 20 19 18 18 17 17 16 16 15 15 15 15 14 14 14 14 14
20 19 20 21 21 21 21 20 18 16 17 17 18 19 20 20 20 20 20 21 22 22 22 22 21 21 20 20 19 18 18 17 17 16 16 15 15 15 15 14 14 14 14 14
19 17 18 20 21 22 21 21 18 18 18 17 17 18 21 20 20 21 21 22 23 23 22 22 21 21 20 20 19 18 18 17 17 16 16 16 15 15 15 14 14 14 14 14
19 18 18 18 19 20 21 22 20 18 17 17 17 19 21 20 21 22 22 22 23 22 22 22 21 21 20 20 19 19 18 18 17 17 16 16 15 15 15 14 14 14 14 14
19 17 18 19 19 20 20 21 21 19 18 18 19 20 20 20 20 20 22 22 22 22 22 21 21 21 21 20 20 19 18 18 17 17 16 16 16 15 15 14 14 14 14 14
19 18 19 19 20 21 21 21 21 20 19 19 19 20 20 20 20 21 21 22 22 21 21 21 21 21 20 20 20 19 19 18 17 17 17 16 16 15 15 14 14 14 14 14
17 18 19 19 20 20 20 21 21 21 20 20 20 20 20 21 21 21 21 21 21 21 21 21 21 21 21 20 20 19 19 18 18 17 17 16 16 15 15 15 14 14 14 14
16 17 18 17 18 20 20 21 21 21 21 20 20 20 20 20 20 20 21 21 21 21 21 21 21 21 21 20 20 20 19 18 18 17 17 16 16 16 15 15 14 14 14 14
17 17 16 16 18 19 19 20 21 20 20 19 20 20 20 20 21 21 21 21 21 21 21 21 21 21 21 21 20 20 19 19 18 18 17 17 16 16 15 15 14 14 14 14
16 16 16 15 17 18 19 20 20 20 19 19 19 19 20 21 21 20 21 21 21 21 22 22 21 21 21 20 20 20 19 19 18 18 17 17 16 16 15 15 15 14 14 14
16 15 15 15 17 17 18 20 21 19 18 18 18 18 19 19 17 18 21 21 21 21 21 21 21 21 21 20 20 19 19 19 18 18 18 17 16 16 16 15 15 14 14 14
16 15 15 15 16 16 18 19 20 18 17 19 19 19 19 18 18 20 20 20 21 21 21 21 21 20 20 20 19 19 19 19 18 18 18 17 17 16 16 15 15 14 14 14
16 15 15 14 15 16 18 18 17 17 18 19 19 19 19 19 19 19 19 20 20 20 20 20 20 20 20 19 19 19 19 19 18 18 17 17 17 16 16 15 15 14 14 14
15 15 14 14 15 17 18 18 19 19 18 18 19 19 19 19 19 19 19 19 19 19 19 19 19 19 19 19 19 18 18 18 18 18 17 17 17 16 16 15 15 14 14 14
14 14 14 14 15 16 17 18 18 18 18 18 18 18 18 18 18 18 18 18 18 18 18 18 18 18 18 18 18 18 18 18 17 17 17 17 16 16 16 15 15 14 14 14
13 14 13 13 14 15 17 17 17 17 17 17 17 17 17 17 17 17 17 17 17 17 17 17 17 17 17 17 17 17 17 17 17 17 17 17 16 16 16 15 15 14 14 14
12 13 13 13 15 14 15 16 16 16 16 16 17 17 17 16 16 17 17 17 17 17 17 17 17 17 17 17 17 17 17 17 16 16 16 16 16 15 15 15 15 14 14 13
Wind_Speed
2 4 3 6 7 7 5 4 4 7 5 2 5 8 9 7 5 7 7 8 9 8 7 8 10 11 10 9 9 8 8 6 5 3 2 2 1 1 1 1 1 0 0 1
4 2 6 5 4 5 5 4 5 6 4 2 4 7 7 5 7 9 10 11 11 8 7 8 9 9 10 9 9 8 8 7 5 3 3 2 2 1 1 2 2 1 1 1
4 5 5 4 4 4 5 6 5 5 3 2 2 5 4 3 3 5 8 10 11 13 12 11 10 9 10 10 10 9 8 7 5 4 3 3 3 2 2 2 2 2 2 1
2 3 3 4 4 5 4 5 4 2 1 3 1 2 6 4 2 4 7 9 10 11 11 11 10 10 10 10 9 9 8 7 6 5 5 4 2 1 2 2 2 3 2 2
3 2 2 3 4 5 5 4 2 1 2 2 2 1 6 2 3 5 7 9 10 11 12 12 11 11 10 9 9 8 7 6 5 6 6 5 3 2 1 1 2 2 3 2
3 2 2 3 1 2 2 4 5 5 4 1 3 2 5 5 8 7 7 8 10 10 10 10 9 9 8 8 8 8 8 6 5 6 5 5 4 3 1 1 2 2 2 2
5 5 3 1 3 4 6 6 5 6 4 4 4 1 6 7 7 9 10 10 10 10 11 10 10 10 10 10 9 8 8 6 6 6 5 5 5 4 3 2 2 1 1 2
3 5 4 1 2 2 1 6 5 2 2 4 4 2 7 7 3 5 8 9 9 10 10 11 12 11 11 11 10 9 8 7 6 6 5 4 4 3 2 2 2 2 2 2
1 4 4 3 1 4 2 2 5 6 1 1 4 4 6 4 3 5 7 9 10 11 11 11 11 11 11 11 10 10 9 7 6 6 5 4 4 4 3 2 1 1 1 1
4 2 4 2 3 2 4 6 5 4 2 2 4 3 3 4 4 4 7 9 10 10 10 10 10 10 10 10 9 9 9 8 7 6 5 4 4 4 3 1 1 0 1 1
3 2 4 3 0 2 1 2 4 4 4 4 1 5 5 7 7 7 9 9 10 11 11 10 10 10 10 9 8 8 8 7 6 6 5 5 4 3 2 2 1 1 1 1
2 4 2 5 6 4 4 4 6 4 1 3 3 6 7 6 6 6 7 7 8 10 10 10 9 8 8 9 9 9 9 8 7 7 6 5 4 3 2 2 1 1 0 1
3 5 4 7 8 5 2 1 4 5 4 3 2 6 6 3 3 4 5 5 6 7 7 7 7 8 9 10 10 9 9 9 7 7 6 5 4 4 3 2 2 1 1 1
3 3 4 4 6 5 5 5 1 4 3 3 5 6 7 5 3 2 2 3 4 6 6 7 7 8 9 9 10 10 9 8 8 8 7 6 5 5 4 3 2 1 1 0
4 1 3 6 8 5 4 6 4 3 6 6 7 5 7 5 4 3 2 2 3 4 5 7 8 7 7 8 9 9 9 9 9 8 8 7 6 5 4 3 2 1 1 1
3 0 3 6 6 4 5 7 5 4 4 4 3 4 6 4 0 1 1 3 4 5 6 7 7 7 8 9 10 9 9 9 9 9 8 7 6 5 4 4 3 2 1 0
1 1 2 5 7 5 4 5 3 2 3 4 5 5 3 1 1 2 1 2 3 5 6 7 8 8 9 9 10 11 11 9 9 9 8 7 7 6 5 4 3 2 2 1
4 2 2 2 4 2 7 4 1 2 3 1 1 1 1 1 2 1 2 1 2 3 4 5 6 6 6 7 7 9 8 9 10 9 8 8 8 7 5 5 4 3 2 2
7 6 3 2 1 6 7 5 1 1 3 5 3 3 3 1 3 5 4 2 3 4 4 5 6 5 5 7 7 7 8 8 9 9 9 9 8 8 6 6 5 3 3 3
4 5 4 3 2 4 6 8 4 4 2 6 3 3 4 5 3 5 7 4 3 2 2 2 2 2 4 5 7 8 8 8 9 10 10 9 9 8 8 7 5 4 4 4
3 2 2 4 4 5 6 7 4 3 4 5 2 2 2 1 3 6 6 4 3 2 2 1 1 2 4 4 6 8 8 9 9 8 8 8 8 9 8 6 4 5 5 4
3 2 2 3 3 6 5 4 2 4 3 2 2 2 2 2 4 5 5 4 4 3 2 1 0 1 1 3 6 7 8 8 6 7 8 8 8 8 7 6 5 5 6 5
2 4 4 5 6 5 3 1 2 1 0 2 2 2 2 3 5 5 4 4 4 4 3 1 0 1 1 2 5 6 6 5 6 7 8 8 7 6 6 7 7 5 5 5
4 2 0 3 4 6 6 4 4 2 2 3 2 2 2 3 4 5 5 4 4 4 3 2 0 1 2 3 3 4 4 6 8 8 8 8 8 7 6 5 6 6 6 6
5 3 3 6 7 6 6 5 5 4 4 4 3 3 3 3 5 4 4 5 4 4 3 2 3 4 4 3 3 3 4 6 7 8 7 7 8 8 7 5 5 6 6 7
6 6 6 9 8 6 10 9 6 5 5 5 4 4 4 3 5 5 5 5 5 4 4 4 4 4 4 4 3 3 4 6 7 7 7 6 7 7 6 6 3 2 3 6
Wind_Direction
115 94 178 203 189 180 186 194 245 262 264 230 250 257 257 249 226 211 191 179 178 180 170 151 147 143 139 140 141 142 138 139 126 109 111 106 85 339 343 297 240 288 322 48
56 234 221 196 182 184 202 222 250 275 272 226 260 265 258 236 215 201 184 175 173 164 148 150 147 145 146 149 148 145 145 147 143 144 154 159 161 222 254 292 312 302 273 254
175 228 202 182 195 212 233 223 230 249 306 346 344 325 300 280 234 190 176 172 170 168 163 162 156 153 149 154 158 155 154 154 150 142 114 80 57 30 5 332 316 301 275 261
224 239 204 204 214 189 241 232 213 240 57 311 46 300 292 279 261 181 169 171 172 171 166 164 161 159 161 163 157 150 155 156 155 144 134 137 140 178 237 249 268 295 295 276
271 225 195 222 226 185 207 207 199 222 159 335 357 145 287 301 210 206 190 186 179 174 170 169 169 168 165 158 154 156 153 154 158 154 149 146 151 194 241 277 295 310 307 291
283 277 201 210 246 181 139 51 35 47 71 350 273 170 272 238 212 198 194 187 177 174 169 166 164 155 153 152 151 153 154 162 163 156 152 158 165 174 172 257 300 309 306 305
345 335 319 86 55 18 63 73 32 14 17 273 287 173 254 259 223 192 185 184 179 172 164 161 159 160 159 158 158 159 159 166 167 158 162 173 176 174 181 212 241 267 289 289
24 319 298 319 157 161 119 127 142 170 241 295 341 304 275 291 225 164 161 162 161 167 169 169 171 169 167 167 165 163 166 170 171 167 172 176 173 171 189 204 212 233 246 259
127 283 295 278 224 136 116 129 160 134 122 352 320 310 321 5 72 121 141 148 167 177 177 176 175 173 172 173 175 173 170 171 176 175 169 169 170 172 186 202 208 233 257 266
146 262 294 296 44 25 145 148 94 97 103 8 324 293 254 253 219 183 176 180 187 183 179 178 179 181 181 179 178 172 169 174 179 176 174 173 178 184 182 172 195 261 283 309
98 103 323 354 170 225 64 97 105 110 143 142 285 282 243 223 217 203 205 200 193 189 186 185 186 186 182 176 172 171 174 173 176 176 173 165 177 179 163 165 203 212 263 315
62 107 314 281 275 220 183 176 143 138 222 166 171 271 282 238 228 206 208 208 201 195 191 188 185 179 178 179 179 178 179 177 179 175 168 168 169 163 158 175 204 195 229 293
73 86 31 350 349 360 346 245 146 133 124 145 166 270 313 320 284 243 217 208 199 190 189 187 183 184 188 188 186 185 185 183 177 168 164 162 165 167 176 186 198 195 198 306
104 107 158 205 243 276 296 297 253 129 153 206 218 252 307 320 295 264 235 203 180 174 176 183 192 197 197 193 189 187 189 182 174 168 166 171 180 182 187 186 183 188 185 186
77 151 245 249 259 263 276 281 271 210 201 198 227 237 266 267 245 229 209 173 158 177 189 194 198 202 200 195 192 190 188 182 176 170 176 186 187 180 175 175 181 190 194 178
48 296 340 312 308 312 300 284 265 248 225 206 219 265 274 273 265 76 179 174 186 205 208 207 204 202 200 197 194 189 188 184 175 176 186 184 174 172 176 183 179 176 182 154
313 117 16 296 308 348 307 264 230 242 244 200 216 244 277 1 76 180 198 187 208 221 218 212 209 206 203 199 191 190 190 179 174 180 181 177 174 177 185 184 169 177 182 149
198 169 164 272 358 270 251 273 175 101 8 6 138 260 217 208 220 143 102 153 242 246 236 226 220 216 209 195 188 185 175 172 175 178 179 178 175 179 179 174 179 190 172 156
183 167 160 152 239 281 302 320 320 117 4 352 36 18 359 359 35 360 337 307 237 233 238 228 214 205 196 189 180 163 166 171 174 181 184 182 176 174 175 179 187 182 158 152
101 124 143 153 180 243 274 303 317 102 5 326 17 27 7 39 33 297 310 317 317 310 290 269 212 174 179 190 168 160 170 172 184 189 187 181 175 175 180 186 184 169 157 160
26 45 158 193 217 254 281 306 21 90 257 298 343 31 41 96 233 273 306 324 323 324 318 13 114 191 204 181 166 171 177 191 196 185 177 175 176 179 182 181 172 160 155 144
206 195 210 165 197 249 314 18 73 242 275 319 2 9 14 327 316 328 337 335 340 344 355 49 117 263 240 175 169 183 196 201 180 168 170 177 179 181 176 166 166 160 154 148
216 199 201 196 218 260 311 265 263 203 267 312 325 325 357 346 332 333 329 330 333 328 323 335 199 271 292 206 183 194 210 183 167 165 174 178 176 176 169 168 167 161 159 161
292 355 36 295 275 297 308 324 332 332 299 288 291 299 334 317 311 316 316 317 320 324 311 314 315 246 269 259 225 210 195 175 169 172 179 179 175 174 169 169 171 170 174 175
262 321 304 278 280 306 310 314 308 312 314 307 303 298 295 296 296 292 293 297 297 294 293 273 245 237 246 254 247 215 180 171 175 179 180 182 181 176 173 172 178 182 194 190
228 227 235 255 262 266 281 290 295 301 303 301 298 300 304 291 277 282 282 283 286 288 290 284 271 256 251 241 237 214 186 179 178 185 187 186 184 180 175 169 157 123 175 183
Height
1485 1492 1497 1494 1492 1494 1497 1501 1502 1496 1488 1490 1491 1488 1483 1481 1482 1482 1484 1486 1488 1490 1493 1495 1497 1498 1500 1502 1503 1505 1505 1506 1506 1505 1505 1505 1504 1504 1503 1502 1501 1499 1498 1496
1491 1494 1489 1487 1489 1492 1495 1499 1499 1493 1486 1488 1490 1487 1481 1479 1479 1479 1481 1483 1485 1489 1492 1494 1496 1497 1499 1501 1502 1503 1504 1504 1504 1504 1504 1504 1503 1503 1502 1501 1500 1498 1497 1495
1492 1489 1484 1486 1490 1493 1494 1497 1496 1494 1488 1486 1490 1491 1484 1478 1477 1478 1479 1481 1484 1487 1489 1492 1494 1496 1498 1499 1501 1502 1503 1503 1503 1503 1503 1503 1503 1502 1501 1500 1499 1497 1496 1494
1487 1484 1484 1486 1488 1489 1496 1487 1488 1489 1496 1501 1495 1506 1490 1482 1479 1478 1479 1480 1482 1485 1488 1490 1493 1495 1497 1498 1500 1501 1501 1502 1502 1502 1502 1502 1502 1501 1500 1499 1498 1497 1495 1493
1488 1483 1484 1485 1484 1483 1487 1482 1485 1488 1495 1501 1499 1506 1497 1484 1483 1480 1478 1479 1480 1482 1485 1488 1491 1493 1495 1497 1498 1500 1500 1501 1501 1502 1502 1501 1501 1501 1500 1499 1498 1496 1495 1493
1484 1480 1480 1480 1478 1478 1479 1484 1489 1495 1501 1512 1502 1506 1501 1488 1480 1477 1477 1477 1478 1481 1484 1487 1490 1492 1494 1496 1497 1498 1499 1500 1501 1501 1501 1501 1500 1500 1499 1498 1497 1496 1494 1492
1490 1484 1479 1477 1481 1481 1484 1499 1514 1516 1521 1516 1499 1501 1496 1476 1472 1472 1473 1475 1477 1480 1483 1486 1488 1490 1492 1494 1496 1497 1498 1499 1499 1500 1500 1500 1499 1499 1498 1497 1496 1495 1493 1491
1500 1499 1483 1478 1481 1486 1488 1497 1516 1524 1524 1517 1503 1502 1488 1472 1469 1469 1471 1474 1477 1479 1482 1484 1486 1488 1491 1492 1494 1495 1497 1497 1498 1499 1499 1499 1499 1498 1498 1497 1495 1494 1493 1491
1499 1498 1481 1477 1477 1480 1489 1496 1497 1511 1514 1519 1510 1496 1482 1473 1472 1472 1473 1475 1477 1479 1481 1483 1485 1487 1489 1491 1492 1494 1495 1496 1497 1497 1498 1498 1498 1497 1497 1496 1495 1494 1492 1491
1490 1496 1486 1479 1477 1479 1483 1489 1502 1511 1520 1525 1513 1504 1498 1482 1477 1475 1475 1475 1476 1478 1480 1482 1483 1485 1487 1489 1491 1492 1493 1494 1495 1496 1496 1497 1497 1496 1496 1495 1494 1493 1492 1490
1487 1496 1493 1485 1485 1487 1486 1490 1498 1509 1513 1523 1523 1511 1481 1478 1475 1474 1473 1473 1474 1476 1477 1479 1481 1483 1485 1487 1489 1490 1492 1493 1494 1495 1495 1495 1495 1495 1495 1494 1493 1492 1491 1490
1488 1497 1501 1492 1480 1477 1481 1485 1494 1508 1511 1513 1518 1508 1473 1472 1471 1470 1471 1472 1473 1474 1476 1477 1479 1481 1483 1485 1487 1488 1490 1491 1492 1493 1494 1494 1494 1494 1494 1493 1492 1492 1490 1489
1488 1499 1510 1505 1497 1486 1483 1481 1485 1495 1505 1511 1516 1503 1473 1471 1470 1469 1469 1470 1471 1473 1474 1476 1478 1479 1481 1483 1484 1486 1487 1489 1490 1491 1492 1492 1493 1493 1493 1492 1492 1491 1490 1489
1486 1497 1506 1511 1503 1493 1489 1484 1482 1491 1504 1505 1501 1493 1479 1474 1471 1469 1469 1469 1470 1471 1473 1474 1476 1477 1478 1480 1482 1483 1485 1487 1488 1489 1490 1490 1491 1491 1491 1491 1491 1490 1489 1488
1487 1496 1494 1493 1488 1486 1486 1484 1481 1485 1490 1496 1491 1486 1478 1473 1470 1468 1468 1468 1469 1470 1471 1472 1473 1474 1476 1477 1479 1481 1482 1484 1486 1487 1488 1488 1489 1490 1490 1490 1490 1489 1488 1487
1490 1495 1494 1493 1485 1484 1485 1480 1479 1480 1480 1483 1482 1481 1472 1469 1468 1467 1467 1467 1467 1468 1469 1470 1471 1472 1473 1474 1476 1478 1480 1481 1483 1484 1485 1486 1487 1488 1488 1488 1488 1488 1487 1487
1494 1496 1499 1502 1491 1486 1492 1480 1477 1477 1475 1477 1482 1478 1470 1469 1467 1467 1466 1466 1466 1466 1467 1467 1468 1469 1470 1471 1473 1475 1477 1479 1480 1482 1483 1484 1485 1486 1486 1487 1487 1486 1486 1486
1491 1495 1502 1503 1498 1503 1488 1472 1472 1475 1476 1473 1472 1471 1468 1467 1466 1465 1465 1465 1465 1464 1465 1465 1465 1466 1468 1469 1471 1472 1474 1476 1477 1479 1480 1481 1482 1483 1484 1484 1485 1485 1485 1485
1484 1491 1501 1506 1505 1498 1483 1474 1472 1475 1479 1475 1473 1470 1468 1466 1464 1465 1465 1465 1464 1464 1463 1463 1464 1464 1465 1467 1468 1470 1471 1473 1474 1476 1477 1478 1480 1481 1482 1482 1483 1483 1483 1484
1483 1487 1498 1503 1503 1504 1488 1473 1468 1472 1483 1475 1473 1471 1469 1467 1472 1469 1465 1464 1463 1463 1462 1462 1462 1462 1463 1464 1466 1467 1468 1470 1471 1473 1474 1476 1477 1478 1479 1480 1481 1481 1482 1482
1491 1493 1498 1502 1502 1495 1480 1473 1471 1486 1487 1475 1473 1472 1470 1470 1471 1468 1465 1463 1462 1461 1461 1460 1460 1461 1461 1462 1463 1464 1465 1467 1468 1470 1471 1473 1474 1475 1476 1477 1478 1479 1480 1480
1493 1496 1498 1501 1502 1497 1477 1475 1479 1481 1475 1474 1473 1472 1470 1469 1467 1466 1464 1462 1461 1460 1459 1459 1458 1458 1459 1460 1461 1461 1462 1464 1466 1467 1468 1469 1471 1472 1473 1474 1476 1477 1478 1478
1490 1490 1491 1492 1491 1480 1476 1476 1476 1475 1474 1473 1472 1471 1470 1468 1466 1465 1463 1462 1460 1459 1458 1458 1457 1457 1457 1458 1458 1458 1460 1461 1462 1463 1464 1466 1467 1469 1470 1471 1473 1474 1475 1476
1487 1484 1485 1485 1480 1478 1476 1475 1475 1474 1473 1472 1470 1469 1468 1467 1465 1463 1462 1460 1459 1458 1457 1456 1455 1454 1454 1455 1455 1456 1457 1458 1459 1460 1461 1462 1464 1465 1467 1468 1469 1470 1471 1472
1486 1484 1485 1484 1479 1476 1473 1473 1473 1471 1470 1468 1467 1466 1465 1464 1463 1461 1460 1458 1457 1455 1454 1454 1453 1452 1451 1452 1452 1453 1453 1454 1455 1456 1457 1458 1460 1461 1463 1464 1465 1467 1468 1469
1481 1482 1483 1480 1475 1475 1472 1470 1469 1468 1466 1465 1463 1462 1461 1461 1459 1458 1456 1455 1453 1452 1451 1450 1449 1448 1448 1448 1448 1448 1449 1450 1450 1451 1453 1454 1455 1457 1459 1460 1461 1463 1464 1466